Change the Weather History Date:

Friday, October 7, 2011

  Actual Average Record
Temperature  
Mean Temperature 69 °F 47 °F  
Max Temperature 80 °F 56 °F 80 °F (1980)
Min Temperature 57 °F 38 °F 24 °F (2001)
Degree Days  
Heating Degree Days 0 18  
Month to date heating degree days 55 120  
Since 1 July heating degree days 394 567  
Cooling Degree Days 4 0  
Month to date cooling degree days 4 0  
Year to date cooling degree days 309 204  
Growing Degree Days 18 (Base 50)    
Moisture  
Dew Point 51 °F    
Average Humidity 54    
Maximum Humidity 65    
Minimum Humidity 42    
Precipitation  
Precipitation T in 0.11 in 1.25 in (1977)
Month to date precipitation T 0.79  
Year to date precipitation 23.78 25.60  
Snow  
Snow 0.00 in 0.00 in 0.20 in (1915)
Month to date snowfall 0.0 0.1  
Since 1 July snowfall T 0.2  
Since 1 September snowfall T 0.2  
Snow Depth 0.00 in    
Sea Level Pressure  
Sea Level Pressure 29.92 in    
Wind  
Wind Speed 17 mph (SSE)    
Max Wind Speed 32 mph    
Max Gust Speed 47 mph    
Visibility 10 miles    
Events      
T = Trace of Precipitation, MM = Missing Value Source: NWS Daily Summary

Daily Weather History Graph

Daily Weather History Graph

Search for Another Location

Airport or City:

Trip Planner

Search our weather history database for the weather conditions in past years. The results will help you decide how hot, cold, wet, or windy it might be!

Date:

Astronomy

Oct. 07, 2011 Rise Set
Actual Time 7:15 AM CDT 6:37 PM CDT
Civil Twilight 6:44 AM CDT 7:07 PM CDT
Nautical Twilight 6:09 AM CDT 7:42 PM CDT
Astronomical Twilight 5:34 AM CDT 8:17 PM CDT
Moon 4:32 PM CDT (10/7) 2:50 AM CDT (10/7)
Length of Visible Light 12h 22m
Length of Day
11h 21m
Waxing Gibbous, 83% of the Moon is Illuminated
Oct 7
Waxing Gibbous
Oct 11
Full
Oct 19
Last Quarter
Oct 26
New
Nov 2
First Quarter

Hourly Weather History & Observations

Time (CDT) Temp. Dew Point Humidity Pressure Visibility Wind Dir Wind Speed Gust Speed Precip Events Conditions
12:55 AM 59.0 °F 46.9 °F 64% 30.06 in 10.0 mi SE 9.2 mph - N/A   Clear
1:55 AM 62.1 °F 46.9 °F 58% 30.05 in 10.0 mi SSE 11.5 mph - N/A   Clear
2:55 AM 61.0 °F 48.0 °F 62% 30.04 in 10.0 mi SSE 10.4 mph - N/A   Clear
3:55 AM 63.0 °F 48.0 °F 58% 30.04 in 10.0 mi SSE 11.5 mph 19.6 mph N/A   Clear
4:55 AM 62.1 °F 48.0 °F 60% 30.03 in 10.0 mi SSE 15.0 mph 20.7 mph N/A   Clear
5:55 AM 60.8 °F 48.2 °F 63% 30.02 in 10.0 mi SSE 11.5 mph - N/A   Clear
6:55 AM 60.8 °F 48.2 °F 63% 30.01 in 10.0 mi SSE 9.2 mph - N/A   Clear
7:55 AM 60.1 °F 48.0 °F 64% 30.01 in 10.0 mi SSE 9.2 mph - N/A   Clear
8:55 AM 62.1 °F 48.9 °F 62% 30.00 in 10.0 mi SSE 12.7 mph - N/A   Partly Cloudy
9:55 AM 63.0 °F 50.0 °F 63% 29.99 in 10.0 mi SSE 12.7 mph 19.6 mph N/A   Partly Cloudy
10:55 AM 66.0 °F 51.1 °F 59% 29.96 in 10.0 mi SSE 10.4 mph 19.6 mph N/A   Partly Cloudy
11:55 AM 70.0 °F 52.0 °F 53% 29.94 in 10.0 mi South 13.8 mph 18.4 mph N/A   Scattered Clouds
12:55 PM 72.0 °F 51.1 °F 48% 29.90 in 10.0 mi SSE 16.1 mph 23.0 mph N/A   Partly Cloudy
1:55 PM 75.0 °F 52.0 °F 44% 29.86 in 10.0 mi SSE 17.3 mph 28.8 mph N/A   Partly Cloudy
2:55 PM 78.8 °F 53.6 °F 42% 29.85 in 10.0 mi South 25.3 mph 32.2 mph N/A   Partly Cloudy
3:55 PM 78.8 °F 53.6 °F 42% 29.83 in 10.0 mi South 24.2 mph 39.1 mph N/A   Mostly Cloudy
4:55 PM 77.0 °F 54.0 °F 45% 29.82 in 10.0 mi South 21.9 mph 28.8 mph N/A   Overcast
5:55 PM 77.0 °F 54.0 °F 45% 29.80 in 10.0 mi South 15.0 mph 26.5 mph N/A   Mostly Cloudy
6:55 PM 77.0 °F 54.0 °F 45% 29.80 in 10.0 mi South 18.4 mph 32.2 mph N/A   Overcast
7:55 PM 77.0 °F 54.0 °F 45% 29.81 in 10.0 mi South 20.7 mph 29.9 mph 0.00 in   Overcast
8:55 PM 77.0 °F 55.4 °F 47% 29.81 in 10.0 mi South 19.6 mph 28.8 mph N/A   Overcast
9:55 PM 77.0 °F 55.0 °F 47% 29.81 in 10.0 mi South 25.3 mph 33.4 mph N/A   Overcast
10:55 PM 75.9 °F 53.1 °F 45% 29.82 in 10.0 mi SSW 25.3 mph 39.1 mph N/A   Overcast
11:55 PM 75.0 °F 52.0 °F 44% 29.82 in 10.0 mi SSW 20.7 mph 33.4 mph N/A   Overcast